When you browse on this site, cookies collect data to enhance your experience and personalize the content and advertising you see.
Visit our Privacy Policy to learn more. By continuing to use the site, you agree to this use of cookies and data.

Hourly Weather Xai-Xai

Today, 9 July, Thursday

Time Temperature Precipitation Wind Pressure Humidity
00:00 +34°C° 0 mm 4 mps 733 mmHg 22%
01:00 +33°C° 0 mm 3 mps 733 mmHg 24%
02:00 +31°C° 0 mm 3 mps 733 mmHg 26%
03:00 +30°C° 0 mm 3 mps 733 mmHg 26%
04:00 +30°C° 0 mm 2 mps 733 mmHg 27%
05:00 +29°C° 0 mm 2 mps 733 mmHg 28%
06:00 +31°C° 0 mm 2 mps 733 mmHg 25%
07:00 +35°C° 0 mm 2 mps 734 mmHg 21%
08:00 +36°C° 0 mm 1 mps 734 mmHg 17%
09:00 +39°C° 0 mm 3 mps 734 mmHg 15%
10:00 +41°C° 0 mm 5 mps 734 mmHg 13%
11:00 +44°C° 0 mm 7 mps 734 mmHg 10%
12:00 +45°C° 0 mm 8 mps 734 mmHg 10%
13:00 +45°C° 0 mm 9 mps 733 mmHg 9%
14:00 +47°C° 0 mm 9 mps 733 mmHg 10%
15:00 +45°C° 0 mm 9 mps 733 mmHg 10%
16:00 +45°C° 0 mm 9 mps 732 mmHg 11%
17:00 +44°C° 0 mm 9 mps 732 mmHg 11%
18:00 +41°C° 0 mm 8 mps 732 mmHg 14%
19:00 +39°C° 0 mm 7 mps 733 mmHg 16%
20:00 +36°C° 0 mm 6 mps 733 mmHg 19%
21:00 +35°C° 0 mm 5 mps 733 mmHg 20%
22:00 +34°C° 0 mm 5 mps 733 mmHg 22%
23:00 +33°C° 0 mm 4 mps 733 mmHg 23%

Tomorrow, 10 July, Friday

Time Temperature Precipitation Wind Pressure Humidity
00:00 +32°C° 0 mm 4 mps 733 mmHg 24%
01:00 +32°C° 0 mm 4 mps 733 mmHg 25%
02:00 +30°C° 0 mm 3 mps 733 mmHg 27%
03:00 +29°C° 0 mm 3 mps 733 mmHg 27%
04:00 +29°C° 0 mm 3 mps 733 mmHg 28%
05:00 +28°C° 0 mm 2 mps 733 mmHg 28%
06:00 +30°C° 0 mm 3 mps 733 mmHg 27%
07:00 +33°C° 0 mm 4 mps 734 mmHg 25%
08:00 +35°C° 0 mm 4 mps 734 mmHg 23%
09:00 +37°C° 0 mm 5 mps 734 mmHg 21%
10:00 +40°C° 0 mm 5 mps 734 mmHg 18%
11:00 +41°C° 0 mm 6 mps 734 mmHg 15%
12:00 +42°C° 0 mm 6 mps 733 mmHg 14%
13:00 +44°C° 0 mm 7 mps 733 mmHg 13%
14:00 +45°C° 0 mm 7 mps 732 mmHg 11%
15:00 +45°C° 0 mm 7 mps 732 mmHg 11%
16:00 +45°C° 0 mm 7 mps 732 mmHg 11%
17:00 +44°C° 0 mm 7 mps 732 mmHg 11%
18:00 +41°C° 0 mm 6 mps 732 mmHg 14%
19:00 +39°C° 0 mm 6 mps 732 mmHg 17%
20:00 +36°C° 0 mm 5 mps 733 mmHg 19%
21:00 +35°C° 0 mm 4 mps 733 mmHg 20%
22:00 +35°C° 0 mm 4 mps 733 mmHg 21%
23:00 +34°C° 0 mm 4 mps 733 mmHg 22%

Day after tomorrow, 11 July, Saturday

Time Temperature Precipitation Wind Pressure Humidity
00:00 +33°C° 0 mm 3 mps 733 mmHg 23%
01:00 +31°C° 0 mm 3 mps 733 mmHg 24%
02:00 +30°C° 0 mm 2 mps 733 mmHg 24%
03:00 +29°C° 0 mm 2 mps 733 mmHg 25%
04:00 +29°C° 0 mm 2 mps 733 mmHg 26%
05:00 +28°C° 0 mm 2 mps 733 mmHg 27%
06:00 +31°C° 0 mm 3 mps 733 mmHg 25%
07:00 +34°C° 0 mm 4 mps 734 mmHg 22%
08:00 +37°C° 0 mm 5 mps 734 mmHg 19%
09:00 +39°C° 0 mm 5 mps 734 mmHg 17%
10:00 +41°C° 0 mm 6 mps 734 mmHg 16%
11:00 +42°C° 0 mm 6 mps 734 mmHg 15%
12:00 +44°C° 0 mm 6 mps 733 mmHg 14%
13:00 +45°C° 0 mm 6 mps 732 mmHg 13%
14:00 +46°C° 0 mm 6 mps 732 mmHg 12%
15:00 +45°C° 0 mm 6 mps 731 mmHg 11%
16:00 +45°C° 0 mm 7 mps 731 mmHg 10%
17:00 +45°C° 0 mm 7 mps 731 mmHg 9%
18:00 +42°C° 0 mm 6 mps 731 mmHg 12%
19:00 +40°C° 0 mm 5 mps 731 mmHg 14%
20:00 +36°C° 0 mm 5 mps 732 mmHg 17%
21:00 +35°C° 0 mm 4 mps 732 mmHg 19%
22:00 +34°C° 0 mm 4 mps 732 mmHg 21%
23:00 +33°C° 0 mm 3 mps 732 mmHg 23%

12 July, Sunday

Time Temperature Precipitation Wind Pressure Humidity
00:00 +33°C° 0 mm 3 mps 732 mmHg 23%
01:00 +31°C° 0 mm 3 mps 731 mmHg 24%
02:00 +31°C° 0 mm 3 mps 731 mmHg 25%
03:00 +30°C° 0 mm 3 mps 731 mmHg 26%
04:00 +30°C° 0 mm 3 mps 731 mmHg 28%
05:00 +29°C° 0 mm 4 mps 731 mmHg 30%
06:00 +33°C° 0 mm 5 mps 732 mmHg 28%
07:00 +35°C° 0 mm 6 mps 732 mmHg 25%
08:00 +38°C° 0 mm 7 mps 732 mmHg 23%
09:00 +40°C° 0 mm 7 mps 732 mmHg 20%
10:00 +43°C° 0 mm 7 mps 732 mmHg 16%
11:00 +44°C° 0 mm 8 mps 732 mmHg 12%
12:00 +45°C° 0 mm 7 mps 732 mmHg 11%
13:00 +45°C° 0 mm 6 mps 731 mmHg 10%
14:00 +46°C° 0 mm 6 mps 730 mmHg 9%
15:00 +46°C° 0 mm 6 mps 730 mmHg 9%
16:00 +46°C° 0 mm 7 mps 730 mmHg 9%
17:00 +45°C° 0 mm 8 mps 730 mmHg 8%
18:00 +43°C° 0 mm 7 mps 730 mmHg 10%
19:00 +40°C° 0 mm 7 mps 730 mmHg 11%
20:00 +38°C° 0 mm 6 mps 730 mmHg 13%
21:00 +36°C° 0 mm 6 mps 730 mmHg 14%
22:00 +35°C° 0 mm 6 mps 730 mmHg 15%
23:00 +34°C° 0 mm 6 mps 730 mmHg 16%

13 July, Monday

Time Temperature Precipitation Wind Pressure Humidity
00:00 +33°C° 0 mm 5 mps 730 mmHg 18%
01:00 +33°C° 0 mm 5 mps 729 mmHg 20%
02:00 +32°C° 0 mm 5 mps 729 mmHg 22%
03:00 +30°C° 0 mm 4 mps 729 mmHg 26%
04:00 +29°C° 0 mm 4 mps 729 mmHg 30%
05:00 +29°C° 0 mm 4 mps 729 mmHg 34%
06:00 +32°C° 0 mm 4 mps 730 mmHg 30%
07:00 +34°C° 0 mm 5 mps 730 mmHg 26%
08:00 +36°C° 0 mm 5 mps 730 mmHg 23%
09:00 +39°C° 0 mm 5 mps 730 mmHg 19%
10:00 +41°C° 0 mm 5 mps 730 mmHg 16%
11:00 +43°C° 0 mm 5 mps 730 mmHg 13%
12:00 +44°C° 0 mm 4 mps 729 mmHg 11%
13:00 +45°C° 0 mm 4 mps 729 mmHg 10%
14:00 +46°C° 0 mm 3 mps 728 mmHg 9%
15:00 +45°C° 0 mm 4 mps 728 mmHg 9%
16:00 +46°C° 0 mm 5 mps 728 mmHg 9%
17:00 +46°C° 0 mm 5 mps 728 mmHg 9%
18:00 +43°C° 0 mm 5 mps 728 mmHg 10%
19:00 +41°C° 0 mm 5 mps 728 mmHg 12%
20:00 +39°C° 0 mm 5 mps 729 mmHg 14%
21:00 +36°C° 0 mm 5 mps 729 mmHg 15%
22:00 +35°C° 0 mm 4 mps 729 mmHg 17%
23:00 +34°C° 0 mm 4 mps 729 mmHg 18%

14 July, Tuesday

Time Temperature Precipitation Wind Pressure Humidity
00:00 +33°C° 0 mm 3 mps 729 mmHg 19%
01:00 +31°C° 0 mm 3 mps 729 mmHg 20%
02:00 +30°C° 0 mm 3 mps 729 mmHg 21%
03:00 +29°C° 0 mm 2 mps 729 mmHg 23%
04:00 +28°C° 0 mm 2 mps 729 mmHg 24%
05:00 +27°C° 0 mm 1 mps 729 mmHg 26%
06:00 +30°C° 0 mm 1 mps 730 mmHg 23%
07:00 +33°C° 0 mm 1 mps 730 mmHg 20%
08:00 +36°C° 0 mm 1 mps 731 mmHg 17%
09:00 +39°C° 0 mm 1 mps 731 mmHg 15%
10:00 +41°C° 0 mm 1 mps 731 mmHg 13%
11:00 +43°C° 0 mm 1 mps 731 mmHg 11%
12:00 +45°C° 0 mm 2 mps 730 mmHg 10%
13:00 +46°C° 0 mm 2 mps 730 mmHg 9%
14:00 +47°C° 0 mm 3 mps 729 mmHg 8%
15:00 +47°C° 0 mm 3 mps 729 mmHg 7%
16:00 +47°C° 0 mm 3 mps 729 mmHg 7%
17:00 +48°C° 0 mm 4 mps 729 mmHg 7%
18:00 +44°C° 0 mm 4 mps 729 mmHg 8%
19:00 +41°C° 0 mm 4 mps 730 mmHg 9%
20:00 +38°C° 0 mm 4 mps 730 mmHg 10%
21:00 +37°C° 0 mm 3 mps 730 mmHg 11%
22:00 +35°C° 0 mm 3 mps 730 mmHg 11%
23:00 +34°C° 0 mm 2 mps 730 mmHg 12%
Show more